Ana Sayfa
METAR-TAF:

METAR-TAF

Havaalanları :

Emporia-Greensville Regional Airport

Emporia, Virginia, Amerika Birleşik Devletleri

Enlem: 36-41-13N, Boylam: 077-28-58W, yükseklik: 39 m

Güncel hava durumu gözlemi

Rapor saat 04:15 UTC de 12 dakika önce yapıldı.
Rüzgar batı/kuzeybatıdan 7 kt
Sıcaklık 12°C
Nem 100%
Basınç 1023 hPa
Görüş mesafesi: 16.1 km
Açık gökyüzü

METAR: KEMV 040415Z AUTO 29007KT 10SM CLR 12/12 A3022 RMK AO2 T01200115

Saat: 23:27 (04:27 UTC)


TAF: eksik

4.000'den fazla havaalanı için hava durumu gözlemleri ve tahminleri (METAR ve TAF raporları).

Kullanılabilir istasyonlar harita üzerinde sarı ve kırmızı noktalarla gösterilir.

İstasyonun adını görmek için fareyi noktanın üzerinde gezdirin.

Sonrasında hava gözlem ve tahminlerini görmek için tıklayın.

Haritayı değiştirmek için: yaklaştırmak için siyah artı işaretli yeşil düğmeye ve uzaklaştırmak için de eksi işaretli düğmeye hızla tıklayın; bitişik haritalar için yeşil okları kullanın.


METAR-TAF: